| time (UTC) | temp C | wind direction | speed KPH | gust KPH | rain 1hr cm | rain 24hr cm | rain mn cm | humidity % | barometer mb |
| 20260502193800 | 17 | 5 | 14.5 | 17.7 | 0.00 | 0.00 | 0.00 | 38 | 1019.8 |
| 20260502193257 | 17 | 63 | 8.0 | 14.5 | 0.00 | 0.00 | 0.00 | 39 | 1019.9 |
| 20260502192752 | 17 | 33 | 6.4 | 12.9 | 0.00 | 0.00 | 0.00 | 40 | 1019.9 |
| 20260502192250 | 16 | 11 | 9.7 | 16.1 | 0.00 | 0.00 | 0.00 | 39 | 1019.9 |
| 20260502191746 | 16 | 357 | 11.3 | 24.1 | 0.00 | 0.00 | 0.00 | 39 | 1019.8 |
| 20260502191244 | 16 | 349 | 16.1 | 20.9 | 0.00 | 0.00 | 0.00 | 38 | 1019.9 |
| 20260502190741 | 16 | 7 | 12.9 | 20.9 | 0.00 | 0.00 | 0.00 | 38 | 1020.2 |
| 20260502190238 | 16 | 352 | 12.9 | 16.1 | 0.00 | 0.00 | 0.00 | 38 | 1020.2 |
| 20260502185733 | 16 | 354 | 16.1 | 17.7 | 0.00 | 0.00 | 0.00 | 39 | 1020.2 |
| 20260502185229 | 16 | 20 | 6.4 | 20.9 | 0.00 | 0.00 | 0.00 | 39 | 1020.3 |
| 20260502184726 | 16 | 28 | 6.4 | 14.5 | 0.00 | 0.00 | 0.00 | 42 | 1020.3 |
| 20260502184222 | 16 | 18 | 8.0 | 14.5 | 0.00 | 0.00 | 0.00 | 41 | 1020.4 |
| 20260502183719 | 15 | 346 | 11.3 | 17.7 | 0.00 | 0.00 | 0.00 | 41 | 1020.5 |
| 20260502183214 | 15 | 2 | 12.9 | 16.1 | 0.00 | 0.00 | 0.00 | 41 | 1020.5 |
| 20260502182710 | 15 | 29 | 6.4 | 22.5 | 0.00 | 0.00 | 0.00 | 42 | 1020.6 |
| 20260502182205 | 15 | 18 | 6.4 | 17.7 | 0.00 | 0.00 | 0.00 | 42 | 1020.5 |
| 20260502181703 | 15 | 352 | 8.0 | 14.5 | 0.00 | 0.00 | 0.00 | 43 | 1020.6 |
| 20260502181203 | 15 | 15 | 6.4 | 14.5 | 0.00 | 0.00 | 0.00 | 41 | 1020.5 |
| 20260502180658 | 15 | 359 | 11.3 | 17.7 | 0.00 | 0.00 | 0.00 | 41 | 1020.6 |
| 20260502180156 | 15 | 2 | 8.0 | 14.5 | 0.00 | 0.00 | 0.00 | 42 | 1020.6 |
| 20260502170114 | 15 | 6 | 14.5 | 25.7 | 0.00 | 0.00 | 0.00 | 39 | 1020.4 |
| 20260502164101 | 15 | 312 | 12.9 | 27.4 | 0.00 | 0.00 | 0.00 | 37 | 1020.4 |
| 20260502163556 | 15 | 331 | 19.3 | 25.7 | 0.00 | 0.00 | 0.00 | 36 | 1020.3 |
| 20260502163054 | 15 | 327 | 25.7 | 29.0 | 0.00 | 0.00 | 0.00 | 36 | 1020.5 |
| 20260502162550 | 14 | 342 | 12.9 | 29.0 | 0.00 | 0.00 | 0.00 | 37 | 1020.4 |
| 20260502162048 | 14 | 313 | 17.7 | 25.7 | 0.00 | 0.00 | 0.00 | 38 | 1020.4 |
| 20260502161544 | 14 | 320 | 14.5 | 20.9 | 0.00 | 0.00 | 0.00 | 38 | 1020.4 |
| 20260502161042 | 14 | 346 | 16.1 | 22.5 | 0.00 | 0.00 | 0.00 | 38 | 1020.3 |
| 20260502160540 | 15 | 340 | 17.7 | 20.9 | 0.00 | 0.00 | 0.00 | 37 | 1020.2 |
| 20260502151953 | 14 | 341 | 9.7 | 11.3 | 0.00 | 0.00 | 0.00 | 36 | 1020.0 |
| 20260502151449 | 14 | 312 | 12.9 | 14.5 | 0.00 | 0.00 | 0.00 | 34 | 1019.8 |
| 20260502150947 | 14 | 298 | 8.0 | 14.5 | 0.00 | 0.00 | 0.00 | 36 | 1020.0 |
| 20260502150444 | 14 | 24 | 6.4 | 9.7 | 0.00 | 0.00 | 0.00 | 34 | 1020.2 |
| 20260502130329 | 9 | 307 | 4.8 | 9.7 | 0.00 | 0.00 | 0.00 | 41 | 1019.3 |
| 20260502123815 | 8 | 351 | 3.2 | 4.8 | 0.00 | 0.00 | 0.00 | 42 | 1019.0 |
| 20260502123312 | 8 | 304 | 4.8 | 4.8 | 0.00 | 0.00 | 0.00 | 42 | 1018.9 |
| 20260502122809 | 8 | 306 | 6.4 | 9.7 | 0.00 | 0.00 | 0.00 | 40 | 1018.8 |
| 20260502122306 | 8 | 306 | 4.8 | 6.4 | 0.00 | 0.00 | 0.00 | 41 | 1018.7 |
| 20260502121803 | 7 | 346 | 4.8 | 6.4 | 0.00 | 0.00 | 0.00 | 41 | 1018.8 |
| 20260502121300 | 7 | 316 | 3.2 | 6.4 | 0.00 | 0.00 | 0.00 | 42 | 1018.8 |
| 20260502120757 | 7 | 315 | 3.2 | 4.8 | 0.00 | 0.00 | 0.00 | 42 | 1018.6 |
| 20260502120254 | 8 | 346 | 3.2 | 4.8 | 0.00 | 0.00 | 0.00 | 41 | 1018.8 |
| 20260502115752 | 8 | 322 | 3.2 | 4.8 | 0.00 | 0.00 | 0.00 | 40 | 1018.7 |
| 20260502115248 | 7 | 303 | 4.8 | 4.8 | 0.00 | 0.00 | 0.00 | 42 | 1018.6 |
| 20260502114744 | 7 | 31 | 1.6 | 3.2 | 0.00 | 0.00 | 0.00 | 42 | 1018.7 |
| 20260502114241 | 7 | 14 | 1.6 | 3.2 | 0.00 | 0.00 | 0.00 | 42 | 1018.7 |
| 20260502113738 | 8 | 312 | 1.6 | 4.8 | 0.00 | 0.00 | 0.00 | 41 | 1018.6 |
| 20260502113236 | 8 | 323 | 4.8 | 4.8 | 0.00 | 0.00 | 0.00 | 40 | 1018.5 |
| 20260502112734 | 8 | 311 | 4.8 | 6.4 | 0.00 | 0.00 | 0.00 | 40 | 1018.6 |
| 20260502112231 | 7 | 3 | 3.2 | 3.2 | 0.00 | 0.00 | 0.00 | 42 | 1018.6 |
| 20260502111728 | 7 | 16 | 1.6 | 3.2 | 0.00 | 0.00 | 0.00 | 43 | 1018.6 |
| 20260502111226 | 7 | 59 | 1.6 | 3.2 | 0.00 | 0.00 | 0.00 | 43 | 1018.7 |
| 20260502110723 | 8 | 327 | 1.6 | 3.2 | 0.00 | 0.00 | 0.00 | 42 | 1018.8 |
| 20260502110221 | 8 | 324 | 3.2 | 6.4 | 0.00 | 0.00 | 0.00 | 40 | 1018.7 |
| 20260502105719 | 10 | 356 | 6.4 | 6.4 | 0.00 | 0.00 | 0.00 | 39 | 1018.7 |
| 20260502105215 | 9 | 323 | 4.8 | 6.4 | 0.00 | 0.00 | 0.00 | 36 | 1018.5 |
| 20260502104712 | 8 | 10 | 3.2 | 4.8 | 0.00 | 0.00 | 0.00 | 38 | 1018.5 |
| 20260502104210 | 8 | 351 | 3.2 | 3.2 | 0.00 | 0.00 | 0.00 | 39 | 1018.5 |
| 20260502103707 | 8 | 55 | 1.6 | 4.8 | 0.00 | 0.00 | 0.00 | 41 | 1018.5 |
| 20260502103205 | 8 | 50 | 1.6 | 3.2 | 0.00 | 0.00 | 0.00 | 42 | 1018.5 |
| 20260502102702 | 8 | 17 | 3.2 | 6.4 | 0.00 | 0.00 | 0.00 | 42 | 1018.6 |
| 20260502102158 | 8 | 319 | 3.2 | 4.8 | 0.00 | 0.00 | 0.00 | 42 | 1018.5 |
| 20260502101656 | 8 | 346 | 1.6 | 4.8 | 0.00 | 0.00 | 0.00 | 42 | 1018.5 |
| 20260502101154 | 8 | 14 | 1.6 | 3.2 | 0.00 | 0.00 | 0.00 | 43 | 1018.4 |
| 20260502100652 | 8 | 300 | 4.8 | 6.4 | 0.00 | 0.00 | 0.00 | 42 | 1018.5 |
| 20260502100150 | 8 | 336 | 1.6 | 3.2 | 0.00 | 0.00 | 0.00 | 41 | 1018.5 |
| 20260502091124 | 10 | 297 | 6.4 | 6.4 | 0.00 | 0.00 | 0.00 | 36 | 1018.4 |
| 20260502090621 | 11 | 326 | 4.8 | 9.7 | 0.00 | 0.00 | 0.00 | 36 | 1018.1 |
| 20260502090119 | 11 | 325 | 6.4 | 9.7 | 0.00 | 0.00 | 0.00 | 36 | 1018.2 |
| 20260502071516 | 11 | 105 | 1.6 | 9.7 | 0.00 | 0.00 | 0.00 | 40 | 1019.0 |
| 20260502071014 | 10 | 70 | 1.6 | 3.2 | 0.00 | 0.00 | 0.00 | 42 | 1019.1 |
| 20260502070512 | 11 | 131 | 3.2 | 4.8 | 0.00 | 0.00 | 0.00 | 41 | 1018.9 |
| 20260502070010 | 12 | 135 | 4.8 | 9.7 | 0.00 | 0.00 | 0.00 | 39 | 1018.7 |
| 20260502065508 | 12 | 146 | 8.0 | 11.3 | 0.00 | 0.00 | 0.00 | 39 | 1018.7 |
| 20260502065006 | 12 | 164 | 6.4 | 11.3 | 0.00 | 0.00 | 0.00 | 41 | 1018.8 |
| 20260502064504 | 12 | 145 | 8.0 | 9.7 | 0.00 | 0.00 | 0.00 | 40 | 1018.7 |
| 20260502064000 | 12 | 137 | 6.4 | 9.7 | 0.00 | 0.00 | 0.00 | 40 | 1018.6 |
| 20260502063459 | 12 | 132 | 8.0 | 9.7 | 0.00 | 0.00 | 0.00 | 41 | 1018.8 |
| 20260502062955 | 11 | 137 | 6.4 | 9.7 | 0.00 | 0.00 | 0.00 | 42 | 1018.7 |
| 20260502062452 | 12 | 134 | 8.0 | 9.7 | 0.00 | 0.00 | 0.00 | 41 | 1018.7 |
| 20260502061951 | 12 | 148 | 8.0 | 11.3 | 0.00 | 0.00 | 0.00 | 41 | 1018.7 |
| 20260502061449 | 11 | 135 | 9.7 | 11.3 | 0.00 | 0.00 | 0.00 | 44 | 1018.9 |
| 20260502060944 | 11 | 135 | 6.4 | 9.7 | 0.00 | 0.00 | 0.00 | 42 | 1018.8 |
| 20260502060440 | 11 | 122 | 6.4 | 9.7 | 0.00 | 0.00 | 0.00 | 44 | 1019.0 |
| 20260502055937 | 11 | 119 | 6.4 | 9.7 | 0.00 | 0.00 | 0.00 | 43 | 1018.7 |
| 20260502055435 | 11 | 125 | 6.4 | 9.7 | 0.00 | 0.00 | 0.00 | 43 | 1019.0 |
| 20260502054929 | 11 | 129 | 6.4 | 9.7 | 0.00 | 0.00 | 0.00 | 43 | 1018.7 |
| 20260502054426 | 11 | 120 | 8.0 | 9.7 | 0.00 | 0.00 | 0.00 | 43 | 1018.9 |
| 20260502053924 | 11 | 143 | 8.0 | 9.7 | 0.00 | 0.00 | 0.00 | 44 | 1019.0 |
| 20260502053421 | 11 | 128 | 8.0 | 11.3 | 0.00 | 0.00 | 0.00 | 45 | 1018.9 |
| 20260502052918 | 11 | 124 | 8.0 | 9.7 | 0.00 | 0.00 | 0.00 | 44 | 1019.1 |
| 20260502052416 | 11 | 128 | 8.0 | 12.9 | 0.00 | 0.00 | 0.00 | 42 | 1019.0 |
| 20260502051914 | 11 | 120 | 9.7 | 11.3 | 0.00 | 0.00 | 0.00 | 42 | 1019.0 |
| 20260502051412 | 11 | 127 | 9.7 | 9.7 | 0.00 | 0.00 | 0.00 | 42 | 1019.1 |
| 20260502050909 | 12 | 119 | 8.0 | 12.9 | 0.00 | 0.00 | 0.00 | 41 | 1019.1 |
| 20260502050405 | 11 | 125 | 6.4 | 11.3 | 0.00 | 0.00 | 0.00 | 43 | 1019.0 |
| 20260502045903 | 11 | 132 | 6.4 | 6.4 | 0.00 | 0.00 | 0.00 | 44 | 1019.1 |
| 20260502045359 | 11 | 130 | 6.4 | 9.7 | 0.00 | 0.00 | 0.00 | 44 | 1019.0 |
| 20260502044856 | 11 | 122 | 9.7 | 9.7 | 0.00 | 0.00 | 0.00 | 44 | 1019.3 |
| 20260502044351 | 11 | 123 | 8.0 | 9.7 | 0.00 | 0.00 | 0.00 | 43 | 1019.5 |
| 20260502043849 | 12 | 122 | 8.0 | 11.3 | 0.00 | 0.00 | 0.00 | 42 | 1019.1 |
| 20260502043347 | 12 | 118 | 11.3 | 12.9 | 0.00 | 0.00 | 0.00 | 41 | 1019.3 |
| 20260502042846 | 12 | 117 | 9.7 | 9.7 | 0.00 | 0.00 | 0.00 | 42 | 1019.1 |
| 20260502042344 | 12 | 116 | 9.7 | 12.9 | 0.00 | 0.00 | 0.00 | 41 | 1019.1 |
| 20260502041841 | 12 | 103 | 11.3 | 12.9 | 0.00 | 0.00 | 0.00 | 41 | 1019.4 |
| 20260502041338 | 12 | 129 | 6.4 | 11.3 | 0.00 | 0.00 | 0.00 | 42 | 1019.4 |
| 20260502040835 | 12 | 120 | 9.7 | 11.3 | 0.00 | 0.00 | 0.00 | 40 | 1019.1 |
| 20260502040332 | 12 | 119 | 8.0 | 9.7 | 0.00 | 0.00 | 0.00 | 40 | 1019.3 |
| 20260502035828 | 12 | 120 | 9.7 | 12.9 | 0.00 | 0.00 | 0.00 | 41 | 1019.3 |
| 20260502035325 | 12 | 123 | 6.4 | 9.7 | 0.00 | 0.00 | 0.00 | 40 | 1019.3 |
| 20260502034822 | 13 | 121 | 6.4 | 6.4 | 0.00 | 0.00 | 0.00 | 40 | 1019.1 |
| 20260502034321 | 13 | 125 | 6.4 | 11.3 | 0.00 | 0.00 | 0.00 | 39 | 1019.3 |
| 20260502033819 | 13 | 117 | 6.4 | 6.4 | 0.00 | 0.00 | 0.00 | 39 | 1019.1 |
| 20260502033316 | 13 | 122 | 9.7 | 12.9 | 0.00 | 0.00 | 0.00 | 39 | 1019.3 |
| 20260502032813 | 13 | 121 | 8.0 | 9.7 | 0.00 | 0.00 | 0.00 | 38 | 1019.1 |
| 20260502032309 | 13 | 122 | 4.8 | 9.7 | 0.00 | 0.00 | 0.00 | 38 | 1019.0 |
| 20260502031806 | 13 | 125 | 4.8 | 6.4 | 0.00 | 0.00 | 0.00 | 37 | 1019.0 |
| 20260502031304 | 14 | 125 | 6.4 | 6.4 | 0.00 | 0.00 | 0.00 | 37 | 1019.3 |
| 20260502030803 | 14 | 113 | 6.4 | 9.7 | 0.00 | 0.00 | 0.00 | 36 | 1019.1 |
| 20260502030300 | 14 | 117 | 6.4 | 6.4 | 0.00 | 0.00 | 0.00 | 36 | 1019.0 |
| 20260502025758 | 14 | 108 | 6.4 | 6.4 | 0.00 | 0.00 | 0.00 | 37 | 1019.1 |
| 20260502025255 | 14 | 119 | 4.8 | 11.3 | 0.00 | 0.00 | 0.00 | 36 | 1018.9 |
| 20260502024753 | 15 | 125 | 4.8 | 4.8 | 0.00 | 0.00 | 0.00 | 36 | 1018.9 |
| 20260502024250 | 15 | 112 | 4.8 | 6.4 | 0.00 | 0.00 | 0.00 | 35 | 1018.9 |
| 20260502023748 | 15 | 134 | 9.7 | 11.3 | 0.00 | 0.00 | 0.00 | 33 | 1018.7 |
| 20260502023246 | 15 | 137 | 6.4 | 11.3 | 0.00 | 0.00 | 0.00 | 34 | 1018.9 |
| 20260502022743 | 16 | 130 | 8.0 | 11.3 | 0.00 | 0.00 | 0.00 | 33 | 1018.7 |
| 20260502022239 | 16 | 155 | 8.0 | 11.3 | 0.00 | 0.00 | 0.00 | 33 | 1018.8 |
| 20260502021736 | 16 | 152 | 9.7 | 12.9 | 0.00 | 0.00 | 0.00 | 32 | 1018.9 |
| 20260502021234 | 16 | 147 | 6.4 | 9.7 | 0.00 | 0.00 | 0.00 | 33 | 1018.6 |
| 20260502020731 | 16 | 119 | 4.8 | 6.4 | 0.00 | 0.00 | 0.00 | 33 | 1018.7 |
| 20260502020228 | 16 | 125 | 4.8 | 9.7 | 0.00 | 0.00 | 0.00 | 33 | 1018.9 |
| 20260502015726 | 16 | 106 | 8.0 | 12.9 | 0.00 | 0.00 | 0.00 | 32 | 1018.7 |
| 20260502015222 | 17 | 134 | 6.4 | 12.9 | 0.00 | 0.00 | 0.00 | 32 | 1018.8 |
| 20260502014720 | 17 | 115 | 12.9 | 16.1 | 0.00 | 0.00 | 0.00 | 31 | 1018.8 |
| 20260502014216 | 18 | 115 | 8.0 | 11.3 | 0.00 | 0.00 | 0.00 | 28 | 1018.8 |
| 20260502013713 | 19 | 102 | 4.8 | 4.8 | 0.00 | 0.00 | 0.00 | 23 | 1018.7 |
| 20260502013208 | 20 | 119 | 3.2 | 3.2 | 0.00 | 0.00 | 0.00 | 25 | 1018.7 |
| 20260502012705 | 20 | 107 | 0.0 | 1.6 | 0.00 | 0.00 | 0.00 | 21 | 1018.6 |
| 20260502012203 | 20 | 117 | 0.0 | 1.6 | 0.00 | 0.00 | 0.00 | 21 | 1018.9 |
| 20260502011700 | 20 | 128 | 1.6 | 3.2 | 0.00 | 0.00 | 0.00 | 23 | 1018.7 |
| 20260502011155 | 20 | 203 | 4.8 | 4.8 | 0.00 | 0.00 | 0.00 | 21 | 1018.8 |
| 20260502010654 | 20 | 218 | 6.4 | 6.4 | 0.00 | 0.00 | 0.00 | 24 | 1019.0 |
| 20260502010149 | 21 | 200 | 4.8 | 4.8 | 0.00 | 0.00 | 0.00 | 22 | 1018.9 |
| 20260502005647 | 20 | 79 | 1.6 | 3.2 | 0.00 | 0.00 | 0.00 | 22 | 1018.9 |
| 20260502005144 | 20 | 34 | 1.6 | 3.2 | 0.00 | 0.00 | 0.00 | 22 | 1018.9 |
| 20260502004640 | 20 | 28 | 3.2 | 4.8 | 0.00 | 0.00 | 0.00 | 23 | 1018.9 |
| 20260502004137 | 21 | 112 | 0.0 | 3.2 | 0.00 | 0.00 | 0.00 | 21 | 1019.1 |
| 20260502003635 | 20 | 103 | 0.0 | 4.8 | 0.00 | 0.00 | 0.00 | 22 | 1019.0 |
| 20260502003132 | 20 | 159 | 8.0 | 9.7 | 0.00 | 0.00 | 0.00 | 22 | 1019.1 |
| 20260502002628 | 21 | 73 | 1.6 | 1.6 | 0.00 | 0.00 | 0.00 | 22 | 1019.0 |
| 20260502002126 | 20 | 153 | 4.8 | 9.7 | 0.00 | 0.00 | 0.00 | 22 | 1019.1 |
| 20260502001623 | 20 | 266 | 4.8 | 6.4 | 0.00 | 0.00 | 0.00 | 22 | 1019.4 |
| 20260502001120 | 20 | 217 | 11.3 | 11.3 | 0.00 | 0.00 | 0.00 | 22 | 1019.0 |
| 20260502000619 | 21 | 208 | 4.8 | 12.9 | 0.00 | 0.00 | 0.00 | 21 | 1019.0 |
| 20260502000116 | 20 | 191 | 4.8 | 11.3 | 0.00 | 0.00 | 0.00 | 23 | 1019.3 |
| 20260501235611 | 20 | 154 | 3.2 | 6.4 | 0.00 | 0.00 | 0.00 | 23 | 1019.3 |
| 20260501235108 | 20 | 278 | 3.2 | 9.7 | 0.00 | 0.00 | 0.00 | 23 | 1019.3 |
| 20260501234603 | 20 | 279 | 6.4 | 6.4 | 0.00 | 0.00 | 0.00 | 24 | 1019.1 |
| 20260501234101 | 20 | 239 | 6.4 | 9.7 | 0.00 | 0.00 | 0.00 | 23 | 1019.1 |
| 20260501233559 | 20 | 326 | 8.0 | 12.9 | 0.00 | 0.00 | 0.00 | 23 | 1019.3 |
| 20260501233056 | 20 | 22 | 8.0 | 11.3 | 0.00 | 0.00 | 0.00 | 23 | 1019.1 |
| 20260501232552 | 20 | 358 | 6.4 | 6.4 | 0.00 | 0.00 | 0.00 | 22 | 1019.1 |
| 20260501232049 | 20 | 315 | 9.7 | 12.9 | 0.00 | 0.00 | 0.00 | 23 | 1019.1 |
| 20260501231547 | 20 | 309 | 4.8 | 14.5 | 0.00 | 0.00 | 0.00 | 23 | 1019.4 |
| 20260501231045 | 20 | 258 | 6.4 | 14.5 | 0.00 | 0.00 | 0.00 | 22 | 1019.3 |
| 20260501230543 | 20 | 281 | 14.5 | 16.1 | 0.00 | 0.00 | 0.00 | 24 | 1018.9 |
| 20260501230041 | 20 | 36 | 3.2 | 6.4 | 0.00 | 0.00 | 0.00 | 22 | 1019.3 |
| 20260501225538 | 20 | 333 | 4.8 | 6.4 | 0.00 | 0.00 | 0.00 | 21 | 1019.4 |
| 20260501225034 | 20 | 215 | 6.4 | 12.9 | 0.00 | 0.00 | 0.00 | 22 | 1019.1 |
| 20260501224532 | 20 | 19 | 11.3 | 12.9 | 0.00 | 0.00 | 0.00 | 23 | 1019.4 |
| 20260501224029 | 20 | 359 | 12.9 | 14.5 | 0.00 | 0.00 | 0.00 | 22 | 1019.4 |
| 20260501223525 | 20 | 323 | 12.9 | 17.7 | 0.00 | 0.00 | 0.00 | 22 | 1019.3 |
| 20260501223021 | 20 | 297 | 4.8 | 6.4 | 0.00 | 0.00 | 0.00 | 22 | 1019.5 |
| 20260501222518 | 20 | 75 | 1.6 | 4.8 | 0.00 | 0.00 | 0.00 | 22 | 1019.4 |
| 20260501222015 | 20 | 168 | 1.6 | 6.4 | 0.00 | 0.00 | 0.00 | 25 | 1019.7 |
| 20260501221511 | 20 | 283 | 3.2 | 4.8 | 0.00 | 0.00 | 0.00 | 22 | 1019.6 |
| 20260501221009 | 20 | 164 | 6.4 | 6.4 | 0.00 | 0.00 | 0.00 | 23 | 1019.6 |
| 20260501220507 | 20 | 110 | 6.4 | 11.3 | 0.00 | 0.00 | 0.00 | 22 | 1019.5 |
| 20260501220003 | 20 | 13 | 6.4 | 9.7 | 0.00 | 0.00 | 0.00 | 24 | 1019.8 |
| 20260501215459 | 21 | 238 | 3.2 | 3.2 | 0.00 | 0.00 | 0.00 | 22 | 1019.5 |
| 20260501214955 | 20 | 286 | 4.8 | 9.7 | 0.00 | 0.00 | 0.00 | 23 | 1019.8 |
| 20260501214450 | 20 | 306 | 9.7 | 16.1 | 0.00 | 0.00 | 0.00 | 23 | 1019.9 |
| 20260501213946 | 20 | 157 | 0.0 | 14.5 | 0.00 | 0.00 | 0.00 | 24 | 1020.0 |
| 20260501213444 | 20 | 202 | 8.0 | 25.7 | 0.00 | 0.00 | 0.00 | 22 | 1019.9 |
| 20260501212938 | 19 | 232 | 6.4 | 12.9 | 0.00 | 0.00 | 0.00 | 26 | 1020.2 |
| 20260501212436 | 20 | 277 | 6.4 | 12.9 | 0.00 | 0.00 | 0.00 | 24 | 1020.0 |
| 20260501211932 | 20 | 199 | 6.4 | 9.7 | 0.00 | 0.00 | 0.00 | 23 | 1020.2 |
| 20260501211430 | 20 | 269 | 14.5 | 17.7 | 0.00 | 0.00 | 0.00 | 23 | 1020.0 |
| 20260501210927 | 20 | 306 | 12.9 | 16.1 | 0.00 | 0.00 | 0.00 | 23 | 1020.2 |
| 20260501210424 | 20 | 186 | 6.4 | 16.1 | 0.00 | 0.00 | 0.00 | 22 | 1020.0 |
| 20260501205920 | 19 | 62 | 3.2 | 9.7 | 0.00 | 0.00 | 0.00 | 22 | 1020.0 |
| 20260501205417 | 19 | 317 | 6.4 | 11.3 | 0.00 | 0.00 | 0.00 | 23 | 1020.3 |
| 20260501204915 | 19 | 351 | 8.0 | 14.5 | 0.00 | 0.00 | 0.00 | 23 | 1020.2 |
| 20260501204410 | 19 | 328 | 8.0 | 11.3 | 0.00 | 0.00 | 0.00 | 23 | 1020.2 |
| 20260501203906 | 20 | 351 | 9.7 | 12.9 | 0.00 | 0.00 | 0.00 | 26 | 1020.4 |
| 20260501203404 | 20 | 319 | 3.2 | 3.2 | 0.00 | 0.00 | 0.00 | 25 | 1020.2 |
| 20260501202901 | 19 | 12 | 4.8 | 6.4 | 0.00 | 0.00 | 0.00 | 24 | 1020.3 |
| 20260501202358 | 19 | 61 | 3.2 | 4.8 | 0.00 | 0.00 | 0.00 | 26 | 1020.3 |
| 20260501201855 | 19 | 357 | 9.7 | 12.9 | 0.00 | 0.00 | 0.00 | 26 | 1020.2 |
| 20260501201352 | 20 | 334 | 9.7 | 14.5 | 0.00 | 0.00 | 0.00 | 28 | 1020.4 |
| 20260501200848 | 19 | 112 | 0.0 | 9.7 | 0.00 | 0.00 | 0.00 | 27 | 1020.4 |
| 20260501200345 | 18 | 327 | 9.7 | 12.9 | 0.00 | 0.00 | 0.00 | 26 | 1020.5 |
| 20260501195843 | 18 | 276 | 4.8 | 12.9 | 0.00 | 0.00 | 0.00 | 25 | 1020.4 |
| 20260501195338 | 18 | 358 | 9.7 | 14.5 | 0.00 | 0.00 | 0.00 | 26 | 1020.3 |
| 20260501194835 | 19 | 288 | 4.8 | 11.3 | 0.00 | 0.00 | 0.00 | 26 | 1020.5 |
| 20260501194331 | 18 | 125 | 0.0 | 6.4 | 0.00 | 0.00 | 0.00 | 28 | 1020.4 |